Regional Weather Roundup
Issued by NWS Albany, NY

Home | Current Version | Previous Version | Text Only | Print | Product List | Glossary On
Versions: 1 2 3 4 5 6 7 8 9 10 11 12 13 14 15 16 17 18 19 20 21 22 23 24 25 26 27 28 29 30 31 32 33 34 35 36 37 38 39 40 41 42 43 44 45 46 47 48 49 50
961
ASUS41 KALY 271110
RWRALY

NEW YORK STATE HOURLY WEATHER ROUNDUP
NATIONAL WEATHER SERVICE ALBANY NY
700 AM EDT TUE SEP 27 2016

NOTE: "FAIR" INDICATES FEW OR NO CLOUDS BELOW 12,000 FEET WITH NO
SIGNIFICANT WEATHER AND/OR NO OBSTRUCTIONS TO VISIBILITY.

NYZ032-033-038>043-046>054-057>066-NYZ062>081-082-084-271200-
EAST


CITY           SKY/WX    TMP DP  RH WIND       PRES   REMARKS
ALBANY         CLOUDY    58  56  93 CALM      29.91R
GLENS FALLS    CLOUDY    58  55  90 S7        29.90R
POUGHKEEPSIE   CLOUDY    60  59  96 CALM      29.90S
NEWBURGH       MOCLDY    59  59 100 W7        29.92S
MONTGOMERY     CLOUDY    58  58 100 CALM      29.91S FOG
WHITE PLAINS   CLOUDY    63  61  93 W7        29.91R
ISLIP          CLOUDY    67  65  93 W8        29.90R
NEW YORK CITY  LGT RAIN  67  62  84 W12       29.90R
CENTRAL PARK   LGT RAIN  64  62  93 W6        29.93S FOG
$$

NYZ005>009-017-018-044>046-055-056-271200-
CENTRAL


CITY           SKY/WX    TMP DP  RH WIND       PRES   REMARKS
FULTON         PTCLDY    53  51  93 S7        29.88S
SYRACUSE       MOCLDY    51  50  96 E3        29.88S
ROME           CLEAR     49  49 100 SE3       29.92S FOG
ELMIRA         FOG       45  43  93 CALM      29.92S VSB 1/4
BINGHAMTON     FOG       51  51 100 W3        29.93R VSB 1/4
MONTICELLO     CLOUDY    55  54  94 CALM      29.94R
$$

NYZ026>034-041>043-087-271200-
NORTH


CITY           SKY/WX    TMP DP  RH WIND       PRES   REMARKS
WATERTOWN      PTCLDY    55  51  86 S6        29.85S
FORT DRUM      NOT AVBL
OGDENSBURG     FAIR      52  51  97 S3        29.84S
MASSENA        MOCLDY    51  49  92 CALM      29.85S
SARANAC LAKE   FOG       43  42  97 CALM      29.89R VSB 1/4
PLATTSBURGH    PTCLDY    55  50  83 SW3       29.87R
$$

NYZ001>004-010>016-019>021-085-271200-
WEST


CITY           SKY/WX    TMP DP  RH WIND       PRES   REMARKS
NIAGARA FALLS  CLOUDY    55  46  71 S9        29.84S
BUFFALO        LGT RAIN  53  47  79 SW6       29.87S
DUNKIRK        CLEAR     54  47  77 S16G23    29.87R
JAMESTOWN      CLEAR     48  45  87 S8        29.90S
WELLSVILLE     CLEAR     49  45  86 SW5       29.94S
ROCHESTER      MOCLDY    55  52  89 SW8       29.88R
PENN YAN       CLEAR     54  50  86 SW7       29.90S
$$

             KEY
       WCI = WIND CHILL INDEX
       VSB = VISIBILITY
       HX  = HEAT INDEX
$$




USA.gov is the U.S. government's official web portal to all federal, state and local government web resources and services.